Location: Bazinghen
(50.8246°N, 1.6616°E)
Time: 08:45:18
(UTC+00:00)

MOS 1 - Pass Details

Date: 09 April 2020
Orbit: 879 x 891 km, 99.2° (Epoch: 01 June)

Event Time Altitude Azimuth Distance (km) Brightness Sun altitude
Rises 19:12:40 0° 159° (SSE) 3,469 7.0 -5.8°
Reaches altitude 10° 19:15:02 10° 159° (SSE) 2,536 6.3 -6.2°
Maximum altitude 19:20:41 83° 73° (ENE) 898 4.3 -7.0°
Drops below altitude 10° 19:26:24 10° 345° (NNW) 2,562 7.3 -7.8°
Sets 19:28:49 0° 345° (NNW) 3,507 8.0 -8.2°
